Home   Weather   Port of Spain   Past weeks
Flag for Trinidad and Tobago

Past Weather in Port of Spain, Trinidad and Tobago — Yesterday and Last 2 Weeks

Now
70 °F

Passing clouds.


Feels Like: 70 °F
Forecast: 87 / 70 °F
Wind: No wind

Location: Piarco International Airport - Trinidad

Current Time: Apr 1, 2020 at 4:55:27 am

Latest Report: Apr 1, 2020 at 3:00 am


Visibility: N/A

Pressure: 29.83 "Hg

Humidity: 83%

Dew Point: 64 °F

Location of Port of SpainLocation

Past Weather in Port of Spain — Graph

°F

Port of Spain Temperature Yesterday

Maximum temperature yesterday: 88 °F (at 12:00 pm)
Minimum temperature yesterday: 68 °F (at 5:00 am)
Average temperature yesterday: 79 °F

High & Low Weather Summary for the Past Weeks

 TemperatureHumidityPressure
High90 °F (Mar 18, 12:00 pm)94% (Mar 17, 6:00 am)30.04 "Hg (Mar 17, 6:00 am)
Low68 °F (Mar 31, 5:00 am)43% (Mar 31, 2:00 pm)29.77 "Hg (Mar 27, 5:00 pm)
Average80 °F70%29.93 "Hg
* Reported Mar 17 3:00 am — Apr 1 3:00 am, Port of Spain. Weather by CustomWeather, © 2020

Note: Actual official high and low records may vary slightly from our data, if they occured in-between our weather recording intervals... More about our weather records

Port of Spain Weather History for the Previous 24 Hours

Scroll right to see more
 ConditionsComfort  
Time TempWeatherWind HumidityBarometerVisibility
3:00 am
Wed, Apr 1
70 °FPassing clouds.No wind83%29.83 "HgN/A
2:00 am70 °FPassing clouds.No wind83%29.86 "HgN/A
1:00 am72 °FPassing clouds.No wind83%29.86 "HgN/A
11:00 pm
Tue, Mar 31
77 °FPassing clouds.7 mph69%29.92 "HgN/A
10:00 pm77 °FPassing clouds.5 mph69%29.92 "HgN/A
9:00 pm77 °FPassing clouds.6 mph69%29.89 "HgN/A
8:00 pm77 °FPassing clouds.8 mph74%29.86 "HgN/A
7:00 pm79 °FPassing clouds.9 mph70%29.86 "HgN/A
6:00 pm81 °FPassing clouds.12 mph62%29.86 "HgN/A
5:00 pm84 °FPartly sunny.12 mph55%29.83 "HgN/A
4:00 pm86 °FScattered clouds.14 mph52%29.83 "HgN/A
3:00 pm88 °FScattered clouds.16 mph46%29.83 "HgN/A
2:00 pm88 °FScattered clouds.9 mph43%29.83 "HgN/A
1:00 pm88 °FScattered clouds.14 mph46%29.86 "HgN/A
12:00 pm88 °FScattered clouds.9 mph49%29.89 "HgN/A
11:00 am86 °FScattered clouds.9 mph49%29.92 "HgN/A
10:00 am86 °FScattered clouds.9 mph55%29.92 "HgN/A
9:00 am82 °FScattered showers. Scattered clouds.9 mph62%29.92 "HgN/A
8:00 am79 °FPassing clouds.No wind70%29.92 "HgN/A
7:00 am72 °FPassing clouds.No wind88%29.92 "HgN/A
6:00 am68 °FPassing clouds.No wind94%29.89 "HgN/A
5:00 am68 °FPassing clouds.No wind94%29.89 "HgN/A
4:00 am70 °FPassing clouds.No wind88%29.86 "HgN/A
Weather by CustomWeather, © 2020

See weather overview

Advertising